EUTELSAT 7A

Last updated on Wed Sep 17 2025 00:02:46 GMT+0000 (Coordinated Universal Time)

1 28187U 04008A 25259.57822628 .00000085 00000+0 00000+0 0 9992 2 28187 5.1314 75.2626 0000895 112.2432 237.2201 1.00270812 78606
UTC large
Height (km)
Speed (km/s)
/
Latitude / Longitude
Inclination (degrees)
Orbital Period (minutes)
Azimuth
Elevation
Range (km)
Doppler Factor

Next 0 passes for location: London (51.5072 / 0.1276)

Sorry there are no passes over London.